• In Hungary
  • List of Countries
  • For 7 days
  • Water Temperature
  • Satellite Maps
  • Weather Map
  • News
  • Weather Widgets
  • user-avatar
    Login

    Hourly Weather Sydney

    Today, 23 June, Saturday

    Time Temperature Precipitation Wind Pressure Humidity
    00:00 +9°C° 0 mm 2 mps 768 mmHg 80%
    01:00 +9°C° 0 mm 2 mps 768 mmHg 78%
    02:00 +8°C° 0 mm 2 mps 768 mmHg 75%
    03:00 +8°C° 0 mm 2 mps 768 mmHg 73%
    04:00 +8°C° 0 mm 2 mps 768 mmHg 70%
    05:00 +7°C° 0 mm 2 mps 768 mmHg 68%
    06:00 +7°C° 0 mm 2 mps 768 mmHg 65%
    07:00 +7°C° 0 mm 2 mps 768 mmHg 63%
    08:00 +9°C° 0 mm 2 mps 768 mmHg 55%
    09:00 +13°C° 0 mm 2 mps 768 mmHg 46%
    10:00 +15°C° 0 mm 2 mps 768 mmHg 38%
    11:00 +17°C° 0 mm 2 mps 767 mmHg 34%
    12:00 +20°C° 0 mm 1 mps 767 mmHg 30%
    13:00 +22°C° 0 mm 1 mps 766 mmHg 26%
    14:00 +21°C° 0 mm 1 mps 766 mmHg 30%
    15:00 +20°C° 0 mm 1 mps 766 mmHg 34%
    16:00 +19°C° 0 mm 1 mps 766 mmHg 37%
    17:00 +16°C° 0 mm 1 mps 766 mmHg 42%
    18:00 +14°C° 0 mm 1 mps 767 mmHg 47%
    19:00 +12°C° 0 mm 2 mps 767 mmHg 53%
    20:00 +12°C° 0 mm 2 mps 767 mmHg 56%
    21:00 +10°C° 0 mm 3 mps 768 mmHg 59%
    22:00 +8°C° 0 mm 4 mps 768 mmHg 62%
    23:00 +9°C° 0 mm 3 mps 768 mmHg 64%

    Tomorrow, 24 June, Sunday

    Time Temperature Precipitation Wind Pressure Humidity
    00:00 +8°C° 0 mm 3 mps 768 mmHg 66%
    01:00 +8°C° 0 mm 3 mps 768 mmHg 69%
    02:00 +7°C° 0 mm 3 mps 768 mmHg 70%
    03:00 +7°C° 0 mm 3 mps 768 mmHg 71%
    04:00 +7°C° 0 mm 3 mps 768 mmHg 72%
    05:00 +6°C° 0 mm 4 mps 768 mmHg 72%
    06:00 +5°C° 0 mm 4 mps 769 mmHg 72%
    07:00 +5°C° 0 mm 4 mps 769 mmHg 73%
    08:00 +8°C° 0 mm 4 mps 769 mmHg 67%
    09:00 +10°C° 0 mm 5 mps 769 mmHg 62%
    10:00 +13°C° 0 mm 5 mps 770 mmHg 56%
    11:00 +14°C° 0 mm 5 mps 769 mmHg 53%
    12:00 +15°C° 0 mm 5 mps 769 mmHg 50%
    13:00 +16°C° 0 mm 5 mps 768 mmHg 47%
    14:00 +16°C° 0 mm 5 mps 768 mmHg 49%
    15:00 +15°C° 0 mm 5 mps 768 mmHg 50%
    16:00 +15°C° 0 mm 5 mps 768 mmHg 52%
    17:00 +13°C° 0 mm 4 mps 769 mmHg 59%
    18:00 +11°C° 0 mm 4 mps 769 mmHg 65%
    19:00 +10°C° 0 mm 4 mps 770 mmHg 72%
    20:00 +8°C° 0 mm 4 mps 770 mmHg 74%
    21:00 +8°C° 0 mm 4 mps 770 mmHg 76%
    22:00 +9°C° 0 mm 3 mps 771 mmHg 78%
    23:00 +8°C° 0 mm 3 mps 771 mmHg 80%

    Day after tomorrow, 25 June, Monday

    Time Temperature Precipitation Wind Pressure Humidity
    00:00 +8°C° 0 mm 3 mps 771 mmHg 82%
    01:00 +7°C° 0 mm 3 mps 771 mmHg 84%
    02:00 +7°C° 0 mm 3 mps 770 mmHg 84%
    03:00 +6°C° 0 mm 4 mps 770 mmHg 84%
    04:00 +6°C° 0 mm 4 mps 770 mmHg 84%
    05:00 +5°C° 0 mm 4 mps 771 mmHg 85%
    06:00 +5°C° 0 mm 3 mps 771 mmHg 85%
    07:00 +5°C° 0 mm 3 mps 771 mmHg 85%
    08:00 +8°C° 0 mm 3 mps 772 mmHg 75%
    09:00 +11°C° 0 mm 3 mps 772 mmHg 65%
    10:00 +13°C° 0 mm 3 mps 772 mmHg 55%
    11:00 +16°C° 0 mm 2 mps 771 mmHg 50%
    12:00 +17°C° 0 mm 2 mps 771 mmHg 45%
    13:00 +18°C° 0 mm 2 mps 770 mmHg 40%
    14:00 +18°C° 0 mm 2 mps 770 mmHg 43%
    15:00 +17°C° 0 mm 2 mps 770 mmHg 45%
    16:00 +16°C° 0 mm 2 mps 770 mmHg 48%
    17:00 +15°C° 0 mm 2 mps 770 mmHg 55%
    18:00 +13°C° 0 mm 2 mps 771 mmHg 63%
    19:00 +11°C° 0 mm 1 mps 771 mmHg 70%
    20:00 +11°C° 0 mm 1 mps 772 mmHg 74%
    21:00 +10°C° 0 mm 1 mps 772 mmHg 77%
    22:00 +10°C° 0 mm 1 mps 772 mmHg 80%
    23:00 +9°C° 0 mm 1 mps 772 mmHg 82%

    26 June, Tuesday

    Time Temperature Precipitation Wind Pressure Humidity
    00:00 +9°C° 0 mm 1 mps 772 mmHg 84%
    01:00 +9°C° 0 mm 1 mps 772 mmHg 86%
    02:00 +8°C° 0 mm 1 mps 772 mmHg 87%
    03:00 +7°C° 0 mm 2 mps 772 mmHg 88%
    04:00 +7°C° 0 mm 2 mps 772 mmHg 89%
    05:00 +7°C° 0 mm 2 mps 772 mmHg 90%
    06:00 +7°C° 0 mm 2 mps 773 mmHg 90%
    07:00 +7°C° 0 mm 2 mps 773 mmHg 91%
    08:00 +10°C° 0 mm 1 mps 773 mmHg 82%
    09:00 +13°C° 0 mm 1 mps 773 mmHg 72%
    10:00 +15°C° 0 mm 1 mps 774 mmHg 63%
    11:00 +16°C° 0 mm 1 mps 773 mmHg 59%
    12:00 +18°C° 0 mm 1 mps 772 mmHg 55%
    13:00 +18°C° 0 mm 2 mps 772 mmHg 51%
    14:00 +18°C° 0 mm 2 mps 772 mmHg 54%
    15:00 +17°C° 0 mm 2 mps 771 mmHg 56%
    16:00 +17°C° 0 mm 2 mps 771 mmHg 59%
    17:00 +15°C° 0 mm 2 mps 772 mmHg 65%
    18:00 +14°C° 0 mm 2 mps 772 mmHg 71%
    19:00 +13°C° 0 mm 2 mps 772 mmHg 76%
    20:00 +13°C° 0 mm 2 mps 772 mmHg 79%
    21:00 +11°C° 0 mm 3 mps 772 mmHg 81%
    22:00 +11°C° 0 mm 3 mps 772 mmHg 83%
    23:00 +11°C° 0 mm 3 mps 772 mmHg 85%

    27 June, Wednesday

    Time Temperature Precipitation Wind Pressure Humidity
    00:00 +12°C° 0 mm 2 mps 772 mmHg 86%
    01:00 +12°C° 0 mm 2 mps 771 mmHg 88%
    02:00 +10°C° 0.1 mm 2 mps 771 mmHg 89%
    03:00 +10°C° 0.1 mm 2 mps 770 mmHg 90%
    04:00 +10°C° 0.1 mm 2 mps 770 mmHg 92%
    05:00 +10°C° 0.1 mm 2 mps 770 mmHg 92%
    06:00 +11°C° 0.1 mm 3 mps 770 mmHg 92%
    07:00 +11°C° 0.1 mm 3 mps 770 mmHg 92%
    08:00 +11°C° 0.3 mm 3 mps 770 mmHg 91%
    09:00 +12°C° 0.3 mm 3 mps 770 mmHg 90%
    10:00 +13°C° 0.3 mm 3 mps 769 mmHg 89%
    11:00 +13°C° 1.3 mm 3 mps 769 mmHg 90%
    12:00 +13°C° 1.3 mm 3 mps 768 mmHg 91%
    13:00 +13°C° 1.3 mm 3 mps 767 mmHg 92%
    14:00 +13°C° 1.5 mm 2 mps 767 mmHg 93%
    15:00 +13°C° 1.5 mm 2 mps 766 mmHg 94%
    16:00 +13°C° 1.5 mm 2 mps 766 mmHg 95%
    17:00 +12°C° 2.3 mm 2 mps 766 mmHg 95%
    18:00 +11°C° 2.3 mm 3 mps 766 mmHg 96%
    19:00 +11°C° 2.3 mm 3 mps 766 mmHg 96%
    20:00 +11°C° 1.3 mm 3 mps 766 mmHg 95%
    21:00 +11°C° 1.3 mm 4 mps 766 mmHg 95%
    22:00 +11°C° 1.3 mm 4 mps 766 mmHg 95%
    23:00 +11°C° 0.2 mm 3 mps 765 mmHg 95%

    28 June, Thursday

    Time Temperature Precipitation Wind Pressure Humidity
    00:00 +10°C° 0.2 mm 3 mps 765 mmHg 95%
    01:00 +10°C° 0.2 mm 3 mps 764 mmHg 94%
    02:00 +10°C° 0 mm 3 mps 764 mmHg 93%
    03:00 +10°C° 0 mm 4 mps 764 mmHg 92%
    04:00 +8°C° 0 mm 4 mps 764 mmHg 91%
    05:00 +8°C° 0 mm 4 mps 765 mmHg 91%
    06:00 +7°C° 0 mm 4 mps 765 mmHg 91%
    07:00 +7°C° 0 mm 4 mps 765 mmHg 91%
    08:00 +8°C° 0 mm 4 mps 765 mmHg 86%
    09:00 +10°C° 0 mm 4 mps 765 mmHg 81%
    10:00 +12°C° 0 mm 4 mps 765 mmHg 76%
    11:00 +13°C° 0 mm 4 mps 764 mmHg 68%
    12:00 +15°C° 0 mm 4 mps 764 mmHg 60%
    13:00 +17°C° 0 mm 4 mps 763 mmHg 52%
    14:00 +17°C° 0 mm 4 mps 763 mmHg 54%
    15:00 +16°C° 0 mm 3 mps 763 mmHg 56%
    16:00 +16°C° 0 mm 3 mps 763 mmHg 57%
    17:00 +13°C° 0 mm 3 mps 764 mmHg 63%
    18:00 +12°C° 0 mm 4 mps 764 mmHg 68%
    19:00 +10°C° 0 mm 4 mps 765 mmHg 73%
    20:00 +8°C° 0 mm 4 mps 765 mmHg 74%
    21:00 +7°C° 0 mm 4 mps 765 mmHg 75%
    22:00 +6°C° 0 mm 4 mps 765 mmHg 76%
    23:00 +6°C° 0 mm 4 mps 765 mmHg 77%
    Show more